Regional Weather Roundup
Issued by NWS Cleveland, OH

Home | Current Version | Previous Version | Graphics & Text | Print | Product List | Glossary On
Versions: 1 2 3 4 5 6 7 8 9 10 11 12 13 14 15 16 17 18 19 20 21 22 23 24 25 26 27 28 29 30 31 32 33 34 35 36 37 38 39 40 41 42 43 44 45 46 47 48 49 50
000
ASUS41 KCLE 311910
RWRCLE
OHIO REGIONAL WEATHER ROUNDUP
NATIONAL WEATHER SERVICE CLEVELAND, OH
300 PM EDT WED AUG 31 2016

NOTE: "FAIR" INDICATES FEW OR NO CLOUDS BELOW 12,000 FEET WITH NO
SIGNIFICANT WEATHER AND/OR OBSTRUCTIONS TO VISIBILITY.

OHZ001>008-015>018-024>027-034-035-043-044-312000-
   NORTHWEST OHIO

CITY           SKY/WX    TMP DP  RH WIND       PRES   REMARKS
DEFIANCE       SUNNY     83  67  58 N8        29.98F
FINDLAY        CLOUDY    84  68  58 W10       29.95F
TOLEDO EXPRESS SUNNY     81  71  71 NW7       29.96F
TOLEDO EXEC    MOSUNNY   81  70  69 N8        29.96F
LIMA           CLOUDY    80  72  76 NW9       29.97F
$$

OHZ009>014-019>023-028>033-038-089-312000-
   NORTHEAST OHIO

CITY           SKY/WX    TMP DP  RH WIND       PRES   REMARKS
CLE-HOPKINS    CLOUDY    80  69  69 NW5       29.97S
CLE-LAKEFRONT  CLOUDY    78  72  81 W7        29.95R
CUY CO. ARPT   PTSUNNY   77  75  94 NW8       29.97S
LORAIN-ELYRIA  PTSUNNY   79  69  71 N8        29.96F
ASHTABULA      CLOUDY    75  71  87 SW3       29.96F
AKRON-CANTON   CLOUDY    81  66  60 W7        29.96F
WOOSTER        CLOUDY    80  69  69 S3        29.96F
MANSFIELD      CLOUDY    82  68  62 VRB7      29.97F
YOUNGSTOWN     LGT RAIN  68  67  96 SE7       29.97F FOG
$$

OHZ042-051>053-060>062-070>072-077>081-312000-
  SOUTHWEST OHIO

CITY           SKY/WX    TMP DP  RH WIND       PRES   REMARKS
CINC-COVINGTON PTSUNNY   86  71  60 W10       29.97F HX  91
CINC-LUNKEN    PTSUNNY   84  69  60 NW6       29.95F
HAMILTON       MOSUNNY   86  70  58 MISG      29.96F HX  90
DAYTON         PTSUNNY   85  71  63 NW13      29.98F HX  90
WRIGHT-PAT AFB PTSUNNY   81  73  74 S6        29.95F
DAYTON GENERAL TSTM      75  69  81 W9        29.97F
WILMINGTON     PTSUNNY   85  69  58 W8        29.96F
$$

OHZ036-037-039>041-045>050-054>059-063>069-073>076-082>088-312000-
  CENTRAL AND SOUTHEAST OHIO

CITY           SKY/WX    TMP DP  RH WIND       PRES   REMARKS
COLUMBUS       LGT RAIN  77  69  76 N7        29.94F
OSU AIRPORT    CLOUDY    83  69  62 W9        29.95F
BOLTON FIELD   CLOUDY    73  72  94 CALM      29.96F
RICKENBACK AFB CLOUDY    86  69  57 W9        29.93F
NEWARK         CLOUDY    83  69  62 NW14G20   29.94F
MARION         LGT RAIN  79  71  76 W7        29.97F
LANCASTER      MOSUNNY   85  68  56 SW7       29.95F
ZANESVILLE     LGT RAIN  75  69  81 VRB3      29.95F
NEW PHILLY     CLOUDY    86  64  47 S5        29.94F
$$




USA.gov is the U.S. government's official web portal to all federal, state and local government web resources and services.